SCP
0 0 0 0 0 0 0 0 0 0 0 0 0 0 0 0 0 0 0 0 0 0 0 0 0 0 0 0 0 0 0 0 -0 0 0 0 0 0 0 0 0 0 0 0 0
0 0 0 0 0 0 0 0 0 0 0 0 0 0 0 0 0 0 0 0 0 0 0 0 0 0 0 0 0 0 0 0 0 0 0 0 0 0 0 0 0 0 0 0 0
0 0 0 0 0 0 0 0 0 0 0 0 0 0 0 0 0 0 0 0 0 0 0 0 0 0 0 0 0 0 0 0 0 0 0 0 0 0 0 0 0 0 0 0 0
0 0 0 0 0 0 0 0 0 0 0 0 0 0 0 0 0 0 0 0 0 0 0 0 0 0 0 0 0 0 0 0 0 0 0 0 0 0 0 0 0 0 -0 0 0
0 0 0 0 0 0 0 0 0 0 0 0 0 0 0 0 0 0 0 0 0 0 0 0 0 0 0 0 0 0 0 0 0 0 0 0 0 0 0 0 0 0 -0 0 0
0 0 0 0 0 0 0 0 0 0 0 0 0 0 0 0 0 0 0 0 0 0 0 0 0 0 0 0 0 0 0 0 0 0 0 0 0 0 0 0 0 0 0 -0 0
0 0 0 0 0 0 0 0 0 0 0 0 0 0 0 0 0 0 0 0 0 0 0 0 0 0 0 0 0 0 0 0 0 0 0 0 0 0 0 0 0 0 0 -0 -0
0 0 0 0 0 0 0 0 0 0 0 0 0 0 0 0 0 0 0 0 0 0 0 0 0 0 0 0 0 0 0 0 0 0 0 0 0 0 0 0 0 0 0 0 -0
0 0 0 0 0 0 0 0 0 0 0 0 0 0 0 0 0 0 0 0 0 0 0 0 0 0 0 0 0 0 0 0 0 0 0 0 0 0 0 0 0 0 0 0 -0
0 0 0 0 0 0 0 0 0 0 0 0 0 0 0 0 0 0 0 0 0 0 0 0 0 0 0 0 0 0 0 0 0 0 0 0 0 0 0 0 0 0 0 0 0
0 0 0 0 0 0 0 0 0 0 0 0 0 0 0 0 0 0 0 0 0 0 0 0 0 0 0 0 0 0 0 0 0 0 0 0 0 0 -0 -0 0 0 0 0 0
0 0 0 0 0 0 0 0 0 0 0 0 0 0 0 0 0 0 0 0 0 0 0 0 0 0 0 0 0 0 0 0 0 0 0 0 0 0 -0 -0 0 0 0 0 0
0 0 0 0 0 0 0 0 0 0 0 0 0 0 0 0 0 0 0 0 0 0 0 0 0 0 0 0 0 0 0 0 0 0 0 0 0 0 0 0 0 0 0 0 0
0 0 0 0 0 0 0 0 0 0 0 0 0 0 0 0 0 0 0 0 0 0 0 0 0 0 0 0 0 0 0 0 0 0 0 0 -0 0 0 0 0 0 0 0 0
0 0 0 0 0 0 0 0 0 0 0 0 0 0 0 0 0 0 0 0 0 0 0 0 0 0 0 0 0 0 0 0 0 0 0 0 0 0 0 0 0 0 0 0 0
0 0 0 0 0 0 0 0 0 0 0 0 0 0 0 0 0 0 0 0 0 0 0 0 0 0 0 0 0 0 0 0 0 0 0 0 0 0 0 0 0 0 0 0 0
0 0 0 0 0 0 0 0 0 0 0 0 0 0 0 0 0 0 0 0 0 0 0 0 0 0 0 0 0 0 0 0 0 0 0 0 0 0 0 0 0 0 0 0 0
0 0 0 0 0 0 0 0 0 0 0 0 0 0 0 0 0 0 0 0 0 0 0 0 0 0 0 0 0 0 0 0 0 0 0 0 0 0 0 0 0 0 0 0 0
0 0 0 0 0 0 0 0 0 0 0 0 0 0 0 0 0 0 0 0 0 0 0 0 0 0 0 0 0 0 0 0 0 0 0 0 0 0 0 0 0 0 0 0 0
0 0 0 0 0 0 0 0 0 0 0 0 0 0 0 0 0 0 0 0 0 0 0 0 0 0 0 0 0 0 0 0 0 0 0 0 0 0 0 0 0 0 0 0 0
0 0 0 0 0 0 0 0 0 0 0 0 0 0 0 0 0 0 0 0 0 0 0 0 0 0 0 0 0 0 0 0 0 0 0 0 0 0 0 0 0 0 0 0 0
0 0 0 0 0 0 0 0 0 0 0 0 0 0 0 0 0 0 0 0 0 0 0 0 0 0 0 0 0 0 0 0 0 0 0 0 0 0 0 0 0 0 0 0 0
0 0 0 0 0 0 0 0 0 0 0 0 0 0 0 0 0 0 0 0 0 0 0 0 0 0 0 0 0 0 0 0 0 0 0 0 0 0 0 0 0 0 0 -0 -0
0 0 0 0 0 0 0 0 0 0 0 0 0 0 0 0 0 0 0 0 0 0 0 0 0 0 0 0 0 0 0 0 0 0 0 0 0 0 0 0 0 0 0 -0 -0
0 0 0 0 0 0 0 0 0 0 0 0 0 0 0 0 0 0 0 0 0 0 0 0 0 0 0 0 0 0 0 0 0 0 0 0 0 0 0 0 -0 -0 -0 -0 -0
0 0 0 0 0 0 0 0 0 0 0 0 0 0 0 0 0 0 0 0 0 0 0 0 0 0 0 0 0 0 0 0 0 0 0 0 0 0 0 0 0 -0 -0 0 -0
-0 0 0 0 0 0 0 0 0 0 0 0 0 0 0 0 0 0 0 0 0 0 0 0 0 0 0 0 0 0 0 0 0 0 0 0 0 0 0 0 0 0 0 0 0
Wind_Speed_500mb
42 41 35 35 31 32 32 31 31 23 20 18 18 19 19 25 26 28 35 36 42 25 25 33 24 18 11 5 3 4 8 4 9 13 8 21 8 11 7 13 18 14 8 9 42
37 39 39 38 37 33 32 28 32 25 22 20 20 19 17 22 23 32 32 31 35 41 22 31 31 16 7 6 7 6 6 12 11 11 10 22 11 24 11 11 13 13 17 17 47
29 30 36 36 36 35 32 32 29 29 21 21 20 19 15 16 18 17 32 32 35 35 27 27 28 18 9 5 7 7 8 7 6 14 14 25 13 16 16 8 18 23 29 30 52
25 25 32 35 35 34 31 31 27 29 24 21 20 18 14 11 9 6 17 33 33 36 27 29 26 19 7 6 7 4 5 4 2 8 23 22 22 12 19 5 12 22 26 40 53
25 27 32 33 35 35 33 27 27 27 26 21 19 17 13 15 20 9 8 25 31 37 30 29 31 17 9 8 8 4 4 2 3 13 19 23 11 6 18 14 13 16 29 41 47
29 27 31 31 34 35 33 30 24 27 26 23 18 19 16 13 16 17 8 19 32 36 37 31 23 18 14 7 8 8 6 4 5 11 15 9 4 4 10 18 15 20 29 38 42
38 30 31 36 28 32 31 29 24 24 27 26 19 20 24 35 14 19 13 18 33 32 37 32 15 20 14 7 9 16 7 5 2 3 4 9 4 12 14 20 22 28 32 36 40
42 33 30 32 26 27 28 27 25 22 27 25 17 15 19 19 30 17 17 19 27 28 27 29 17 15 4 19 9 9 9 6 3 6 1 9 14 6 19 27 31 34 36 39 43
44 38 32 30 28 25 25 25 23 21 27 20 13 13 16 17 25 23 19 16 23 24 22 24 17 9 12 11 7 11 8 6 4 4 2 5 12 2 11 28 32 38 41 43 44
49 44 36 31 26 24 21 20 19 21 16 13 12 10 25 10 15 29 22 23 20 26 23 16 9 6 6 7 15 11 8 3 7 2 3 4 18 15 12 20 37 39 44 49 50
51 49 43 33 26 21 18 16 14 14 26 18 7 9 4 12 17 26 26 29 26 25 9 7 7 17 20 9 9 13 8 8 3 3 5 11 13 24 26 23 35 46 52 57 57
53 52 48 36 30 24 29 32 28 4 11 48 29 25 11 12 7 26 34 19 15 10 12 8 20 9 16 11 10 8 8 5 2 3 6 5 19 23 17 25 51 57 59 64 62
52 50 47 38 36 38 40 48 13 26 6 10 56 19 22 19 9 33 39 15 7 12 12 15 4 23 12 9 13 3 11 7 3 2 4 10 15 11 10 25 52 60 68 67 70
54 54 50 43 41 39 49 40 32 18 6 10 15 26 25 13 7 28 43 13 3 14 14 7 4 16 13 13 12 9 8 9 8 5 4 7 9 12 10 18 15 47 63 79 78
57 57 55 56 38 43 44 49 41 14 3 9 13 16 27 18 23 19 34 9 15 12 13 12 15 14 11 15 12 8 11 10 6 8 5 8 4 15 4 15 19 24 31 50 57
57 60 61 59 56 39 42 58 44 7 21 9 13 16 16 14 6 15 18 7 11 9 9 4 1 6 14 6 11 19 15 15 9 6 4 6 8 12 8 6 10 6 18 32 29
59 61 68 67 69 52 48 55 11 15 6 12 12 13 11 12 11 9 14 11 13 12 8 7 1 3 6 15 10 9 15 5 5 4 10 2 6 20 14 13 11 25 50 37 27
61 61 67 71 64 56 55 18 12 12 15 4 9 20 14 11 1 10 14 11 10 9 9 13 4 14 6 11 18 14 16 11 15 9 5 5 11 10 9 22 13 17 28 17 15
56 64 70 76 70 63 51 16 19 14 18 16 11 14 10 7 9 11 23 16 14 18 13 11 7 4 6 2 10 13 10 11 14 5 5 7 13 13 5 16 29 39 53 52 37
63 64 74 82 82 61 22 36 8 12 12 19 15 12 16 25 16 10 24 12 11 20 6 14 9 3 2 2 7 7 16 8 6 7 5 7 10 8 5 9 15 28 44 50 53
64 39 53 84 84 54 30 30 16 15 19 14 12 11 12 17 18 15 25 5 13 15 8 10 8 3 3 10 15 6 5 8 9 7 10 7 12 11 13 13 12 15 33 47 56
64 18 55 95 25 20 33 19 8 20 26 9 8 9 16 19 13 12 25 12 36 29 16 9 11 8 6 4 2 1 11 11 9 10 4 3 10 8 13 16 18 17 23 32 45
41 25 73 111 29 24 9 19 10 10 15 13 12 5 8 16 10 13 15 10 22 17 22 14 2 7 10 8 4 8 8 6 9 6 12 12 10 3 7 12 14 11 9 38 47
28 11 23 71 71 36 38 30 31 14 11 10 10 10 9 8 4 17 15 5 41 37 14 12 5 10 15 8 13 12 13 12 11 6 10 12 11 11 12 14 14 20 40 45 44
48 11 19 18 35 38 41 31 39 15 12 28 1 13 15 8 7 9 9 8 7 24 20 6 8 4 8 7 6 5 16 20 19 19 16 10 15 14 15 14 14 30 34 41 47
14 15 24 5 50 42 43 32 55 31 17 14 12 15 11 16 16 15 15 7 11 4 10 13 4 5 2 7 9 5 9 18 16 10 6 7 10 16 30 30 36 30 38 43 38
57 62 11 17 32 39 44 42 52 44 28 22 22 13 11 5 11 20 17 26 23 19 10 28 14 9 22 10 14 16 12 15 10 10 14 19 17 9 11 16 20 39 35 23 27
Wind_Direction_500mb
258 258 259 259 264 276 291 300 309 320 316 293 284 280 273 263 256 246 239 236 225 226 223 217 218 227 244 244 201 145 67 158 206 157 231 163 133 157 161 161 184 204 220 228 185
257 254 253 254 260 266 273 280 296 309 321 299 287 285 284 273 260 251 233 232 225 219 231 211 209 216 228 206 204 110 116 211 192 191 193 173 168 167 152 174 221 227 230 210 186
275 256 250 250 255 264 268 274 279 297 313 312 288 285 285 282 277 252 228 224 219 209 217 207 202 208 214 203 203 163 182 197 213 219 187 163 159 176 156 221 221 230 219 191 186
284 268 256 249 250 257 265 268 271 283 297 313 288 281 275 257 223 285 227 210 210 200 200 189 181 174 179 190 194 161 227 192 305 194 164 162 155 176 202 223 255 229 227 193 189
283 270 265 251 246 249 257 265 258 271 288 303 290 275 265 251 252 265 253 213 205 201 194 185 178 160 177 190 157 193 199 108 341 159 172 153 163 189 222 243 272 211 200 196 191
277 271 263 264 247 244 248 258 256 256 275 289 289 268 250 254 254 238 241 215 205 204 197 189 192 170 176 177 171 163 130 90 104 143 150 144 126 177 224 219 215 195 192 196 197
267 269 268 283 266 249 246 253 259 247 266 277 280 259 255 248 273 240 225 207 200 202 200 195 193 185 160 132 144 129 87 31 60 154 102 128 303 228 233 203 202 197 197 198 201
254 256 259 271 282 260 248 248 252 239 257 267 263 251 256 267 238 238 213 193 192 191 196 190 189 183 149 130 62 83 57 122 301 162 80 136 261 277 216 203 206 208 209 206 208
246 248 247 255 265 269 251 243 241 238 251 251 240 233 261 263 224 216 203 186 175 175 175 176 166 157 132 112 55 14 180 183 299 173 134 154 263 217 201 212 222 219 221 221 218
244 241 244 245 251 258 254 234 224 240 229 227 225 251 249 248 214 201 193 168 155 156 146 167 159 100 67 135 197 172 141 189 215 221 71 240 264 271 269 231 238 235 231 231 230
239 236 238 241 238 237 228 206 193 225 209 203 196 256 322 218 191 186 180 167 153 155 149 152 124 197 187 144 154 137 132 159 234 4 181 244 267 273 273 263 252 242 238 236 236
234 233 234 236 230 217 215 206 212 228 231 233 238 258 257 194 184 184 172 169 156 153 130 74 225 167 131 135 119 122 127 201 350 24 156 347 279 262 241 241 246 247 241 239 239
232 229 227 228 223 218 215 213 208 233 277 246 227 227 227 210 200 197 180 160 129 134 172 163 259 144 131 142 126 124 156 172 166 92 60 333 287 270 271 250 250 248 249 250 245
233 227 219 217 221 220 221 206 213 231 268 228 195 224 221 204 227 190 184 166 144 159 145 189 103 152 141 174 130 160 183 126 128 81 241 11 277 297 282 283 247 255 250 250 248
229 226 215 216 210 210 210 185 203 191 206 200 166 177 177 185 142 176 177 171 165 155 127 220 163 152 157 198 147 187 129 130 93 87 44 332 38 271 329 300 288 285 268 261 259
225 221 213 210 217 212 202 182 189 181 231 187 152 168 145 168 148 127 164 164 133 104 52 124 139 172 179 97 137 155 83 48 56 78 350 263 150 281 251 225 308 352 312 309 301
225 218 213 210 210 203 195 181 177 203 278 195 181 170 169 162 136 153 165 174 157 112 161 32 281 304 151 84 38 96 96 24 5 12 222 333 112 247 298 276 257 301 315 303 320
223 218 216 220 207 204 188 185 188 212 206 126 128 132 183 141 322 138 125 199 244 103 121 146 245 176 186 171 168 175 158 156 186 191 205 74 231 254 269 307 327 3 13 26 345
223 223 214 216 199 208 194 207 198 190 152 139 84 144 171 179 131 135 188 197 205 190 140 132 215 345 38 53 156 193 180 148 108 15 77 213 284 304 17 23 36 34 44 43 41
224 229 212 209 193 200 206 234 223 169 128 155 162 163 171 174 163 186 175 198 206 192 191 201 106 356 322 165 45 163 154 81 6 123 242 272 281 221 155 72 13 19 36 45 45
222 229 212 201 192 184 207 219 194 234 174 159 163 142 162 166 167 192 191 251 184 178 165 144 100 277 143 209 167 125 163 68 117 146 161 156 255 213 162 143 82 30 58 51 39
216 222 188 190 179 191 210 163 282 167 215 204 134 116 163 157 148 186 203 218 184 150 166 192 117 143 184 253 191 84 177 149 140 206 211 134 267 185 174 161 102 71 61 33 17
213 207 185 187 190 190 191 191 183 242 178 164 183 160 173 157 141 190 189 197 153 175 161 182 124 84 5 356 351 202 184 127 110 93 191 146 252 178 233 192 190 18 11 358 5
200 179 195 197 194 180 180 189 177 218 250 151 172 127 120 146 3 175 172 153 177 192 62 91 109 167 185 199 136 180 178 174 144 152 163 215 220 202 213 204 257 345 347 357 5
203 221 200 189 193 184 178 169 181 161 241 168 275 183 157 119 97 140 142 124 80 192 138 55 164 102 33 81 98 133 172 172 200 188 184 191 210 264 215 201 211 329 346 355 352
212 188 169 12 179 174 179 187 189 185 174 201 146 176 171 155 181 180 131 156 168 114 114 155 223 15 186 13 50 69 188 206 216 182 255 135 252 240 280 315 329 348 360 350 356
227 203 214 164 185 183 193 181 195 193 200 190 153 129 162 210 188 178 152 147 155 147 141 165 136 143 233 352 13 310 212 184 201 200 190 214 222 200 279 311 310 329 347 18 25
Wind_Speed_850mb
42 41 35 35 31 32 32 31 31 23 20 18 18 19 19 25 26 28 35 36 42 25 25 33 24 18 11 5 3 4 8 4 9 13 8 21 8 11 7 13 18 14 8 9 42
37 39 39 38 37 33 32 28 32 25 22 20 20 19 17 22 23 32 32 31 35 41 22 31 31 16 7 6 7 6 6 12 11 11 10 22 11 24 11 11 13 13 17 17 47
29 30 36 36 36 35 32 32 29 29 21 21 20 19 15 16 18 17 32 32 35 35 27 27 28 18 9 5 7 7 8 7 6 14 14 25 13 16 16 8 18 23 29 30 52
25 25 32 35 35 34 31 31 27 29 24 21 20 18 14 11 9 6 17 33 33 36 27 29 26 19 7 6 7 4 5 4 2 8 23 22 22 12 19 5 12 22 26 40 53
25 27 32 33 35 35 33 27 27 27 26 21 19 17 13 15 20 9 8 25 31 37 30 29 31 17 9 8 8 4 4 2 3 13 19 23 11 6 18 14 13 16 29 41 47
29 27 31 31 34 35 33 30 24 27 26 23 18 19 16 13 16 17 8 19 32 36 37 31 23 18 14 7 8 8 6 4 5 11 15 9 4 4 10 18 15 20 29 38 42
38 30 31 36 28 32 31 29 24 24 27 26 19 20 24 35 14 19 13 18 33 32 37 32 15 20 14 7 9 16 7 5 2 3 4 9 4 12 14 20 22 28 32 36 40
42 33 30 32 26 27 28 27 25 22 27 25 17 15 19 19 30 17 17 19 27 28 27 29 17 15 4 19 9 9 9 6 3 6 1 9 14 6 19 27 31 34 36 39 43
44 38 32 30 28 25 25 25 23 21 27 20 13 13 16 17 25 23 19 16 23 24 22 24 17 9 12 11 7 11 8 6 4 4 2 5 12 2 11 28 32 38 41 43 44
49 44 36 31 26 24 21 20 19 21 16 13 12 10 25 10 15 29 22 23 20 26 23 16 9 6 6 7 15 11 8 3 7 2 3 4 18 15 12 20 37 39 44 49 50
51 49 43 33 26 21 18 16 14 14 26 18 7 9 4 12 17 26 26 29 26 25 9 7 7 17 20 9 9 13 8 8 3 3 5 11 13 24 26 23 35 46 52 57 57
53 52 48 36 30 24 29 32 28 4 11 48 29 25 11 12 7 26 34 19 15 10 12 8 20 9 16 11 10 8 8 5 2 3 6 5 19 23 17 25 51 57 59 64 62
52 50 47 38 36 38 40 48 13 26 6 10 56 19 22 19 9 33 39 15 7 12 12 15 4 23 12 9 13 3 11 7 3 2 4 10 15 11 10 25 52 60 68 67 70
54 54 50 43 41 39 49 40 32 18 6 10 15 26 25 13 7 28 43 13 3 14 14 7 4 16 13 13 12 9 8 9 8 5 4 7 9 12 10 18 15 47 63 79 78
57 57 55 56 38 43 44 49 41 14 3 9 13 16 27 18 23 19 34 9 15 12 13 12 15 14 11 15 12 8 11 10 6 8 5 8 4 15 4 15 19 24 31 50 57
57 60 61 59 56 39 42 58 44 7 21 9 13 16 16 14 6 15 18 7 11 9 9 4 1 6 14 6 11 19 15 15 9 6 4 6 8 12 8 6 10 6 18 32 29
59 61 68 67 69 52 48 55 11 15 6 12 12 13 11 12 11 9 14 11 13 12 8 7 1 3 6 15 10 9 15 5 5 4 10 2 6 20 14 13 11 25 50 37 27
61 61 67 71 64 56 55 18 12 12 15 4 9 20 14 11 1 10 14 11 10 9 9 13 4 14 6 11 18 14 16 11 15 9 5 5 11 10 9 22 13 17 28 17 15
56 64 70 76 70 63 51 16 19 14 18 16 11 14 10 7 9 11 23 16 14 18 13 11 7 4 6 2 10 13 10 11 14 5 5 7 13 13 5 16 29 39 53 52 37
63 64 74 82 82 61 22 36 8 12 12 19 15 12 16 25 16 10 24 12 11 20 6 14 9 3 2 2 7 7 16 8 6 7 5 7 10 8 5 9 15 28 44 50 53
64 39 53 84 84 54 30 30 16 15 19 14 12 11 12 17 18 15 25 5 13 15 8 10 8 3 3 10 15 6 5 8 9 7 10 7 12 11 13 13 12 15 33 47 56
64 18 55 95 25 20 33 19 8 20 26 9 8 9 16 19 13 12 25 12 36 29 16 9 11 8 6 4 2 1 11 11 9 10 4 3 10 8 13 16 18 17 23 32 45
41 25 73 111 29 24 9 19 10 10 15 13 12 5 8 16 10 13 15 10 22 17 22 14 2 7 10 8 4 8 8 6 9 6 12 12 10 3 7 12 14 11 9 38 47
28 11 23 71 71 36 38 30 31 14 11 10 10 10 9 8 4 17 15 5 41 37 14 12 5 10 15 8 13 12 13 12 11 6 10 12 11 11 12 14 14 20 40 45 44
48 11 19 18 35 38 41 31 39 15 12 28 1 13 15 8 7 9 9 8 7 24 20 6 8 4 8 7 6 5 16 20 19 19 16 10 15 14 15 14 14 30 34 41 47
14 15 24 5 50 42 43 32 55 31 17 14 12 15 11 16 16 15 15 7 11 4 10 13 4 5 2 7 9 5 9 18 16 10 6 7 10 16 30 30 36 30 38 43 38
57 62 11 17 32 39 44 42 52 44 28 22 22 13 11 5 11 20 17 26 23 19 10 28 14 9 22 10 14 16 12 15 10 10 14 19 17 9 11 16 20 39 35 23 27
Wind_Direction_850mb
258 258 259 259 264 276 291 300 309 320 316 293 284 280 273 263 256 246 239 236 225 226 223 217 218 227 244 244 201 145 67 158 206 157 231 163 133 157 161 161 184 204 220 228 185
257 254 253 254 260 266 273 280 296 309 321 299 287 285 284 273 260 251 233 232 225 219 231 211 209 216 228 206 204 110 116 211 192 191 193 173 168 167 152 174 221 227 230 210 186
275 256 250 250 255 264 268 274 279 297 313 312 288 285 285 282 277 252 228 224 219 209 217 207 202 208 214 203 203 163 182 197 213 219 187 163 159 176 156 221 221 230 219 191 186
284 268 256 249 250 257 265 268 271 283 297 313 288 281 275 257 223 285 227 210 210 200 200 189 181 174 179 190 194 161 227 192 305 194 164 162 155 176 202 223 255 229 227 193 189
283 270 265 251 246 249 257 265 258 271 288 303 290 275 265 251 252 265 253 213 205 201 194 185 178 160 177 190 157 193 199 108 341 159 172 153 163 189 222 243 272 211 200 196 191
277 271 263 264 247 244 248 258 256 256 275 289 289 268 250 254 254 238 241 215 205 204 197 189 192 170 176 177 171 163 130 90 104 143 150 144 126 177 224 219 215 195 192 196 197
267 269 268 283 266 249 246 253 259 247 266 277 280 259 255 248 273 240 225 207 200 202 200 195 193 185 160 132 144 129 87 31 60 154 102 128 303 228 233 203 202 197 197 198 201
254 256 259 271 282 260 248 248 252 239 257 267 263 251 256 267 238 238 213 193 192 191 196 190 189 183 149 130 62 83 57 122 301 162 80 136 261 277 216 203 206 208 209 206 208
246 248 247 255 265 269 251 243 241 238 251 251 240 233 261 263 224 216 203 186 175 175 175 176 166 157 132 112 55 14 180 183 299 173 134 154 263 217 201 212 222 219 221 221 218
244 241 244 245 251 258 254 234 224 240 229 227 225 251 249 248 214 201 193 168 155 156 146 167 159 100 67 135 197 172 141 189 215 221 71 240 264 271 269 231 238 235 231 231 230
239 236 238 241 238 237 228 206 193 225 209 203 196 256 322 218 191 186 180 167 153 155 149 152 124 197 187 144 154 137 132 159 234 4 181 244 267 273 273 263 252 242 238 236 236
234 233 234 236 230 217 215 206 212 228 231 233 238 258 257 194 184 184 172 169 156 153 130 74 225 167 131 135 119 122 127 201 350 24 156 347 279 262 241 241 246 247 241 239 239
232 229 227 228 223 218 215 213 208 233 277 246 227 227 227 210 200 197 180 160 129 134 172 163 259 144 131 142 126 124 156 172 166 92 60 333 287 270 271 250 250 248 249 250 245
233 227 219 217 221 220 221 206 213 231 268 228 195 224 221 204 227 190 184 166 144 159 145 189 103 152 141 174 130 160 183 126 128 81 241 11 277 297 282 283 247 255 250 250 248
229 226 215 216 210 210 210 185 203 191 206 200 166 177 177 185 142 176 177 171 165 155 127 220 163 152 157 198 147 187 129 130 93 87 44 332 38 271 329 300 288 285 268 261 259
225 221 213 210 217 212 202 182 189 181 231 187 152 168 145 168 148 127 164 164 133 104 52 124 139 172 179 97 137 155 83 48 56 78 350 263 150 281 251 225 308 352 312 309 301
225 218 213 210 210 203 195 181 177 203 278 195 181 170 169 162 136 153 165 174 157 112 161 32 281 304 151 84 38 96 96 24 5 12 222 333 112 247 298 276 257 301 315 303 320
223 218 216 220 207 204 188 185 188 212 206 126 128 132 183 141 322 138 125 199 244 103 121 146 245 176 186 171 168 175 158 156 186 191 205 74 231 254 269 307 327 3 13 26 345
223 223 214 216 199 208 194 207 198 190 152 139 84 144 171 179 131 135 188 197 205 190 140 132 215 345 38 53 156 193 180 148 108 15 77 213 284 304 17 23 36 34 44 43 41
224 229 212 209 193 200 206 234 223 169 128 155 162 163 171 174 163 186 175 198 206 192 191 201 106 356 322 165 45 163 154 81 6 123 242 272 281 221 155 72 13 19 36 45 45
222 229 212 201 192 184 207 219 194 234 174 159 163 142 162 166 167 192 191 251 184 178 165 144 100 277 143 209 167 125 163 68 117 146 161 156 255 213 162 143 82 30 58 51 39
216 222 188 190 179 191 210 163 282 167 215 204 134 116 163 157 148 186 203 218 184 150 166 192 117 143 184 253 191 84 177 149 140 206 211 134 267 185 174 161 102 71 61 33 17
213 207 185 187 190 190 191 191 183 242 178 164 183 160 173 157 141 190 189 197 153 175 161 182 124 84 5 356 351 202 184 127 110 93 191 146 252 178 233 192 190 18 11 358 5
200 179 195 197 194 180 180 189 177 218 250 151 172 127 120 146 3 175 172 153 177 192 62 91 109 167 185 199 136 180 178 174 144 152 163 215 220 202 213 204 257 345 347 357 5
203 221 200 189 193 184 178 169 181 161 241 168 275 183 157 119 97 140 142 124 80 192 138 55 164 102 33 81 98 133 172 172 200 188 184 191 210 264 215 201 211 329 346 355 352
212 188 169 12 179 174 179 187 189 185 174 201 146 176 171 155 181 180 131 156 168 114 114 155 223 15 186 13 50 69 188 206 216 182 255 135 252 240 280 315 329 348 360 350 356
227 203 214 164 185 183 193 181 195 193 200 190 153 129 162 210 188 178 152 147 155 147 141 165 136 143 233 352 13 310 212 184 201 200 190 214 222 200 279 311 310 329 347 18 25